TimeEST,TemperatureF,Dew PointF,Humidity,Sea Level PressureIn,VisibilityMPH,Wind Direction,Wind SpeedMPH,Gust SpeedMPH,PrecipitationIn,Events,Conditions,WindDirDegrees,DateUTC
12:53 AM,61.0,52.0,72,30.02,10.0,NW,4.6,-,N/A,,Clear,310,2011-11-30 05:53:00
1:53 AM,60.1,53.1,78,30.01,10.0,NW,4.6,-,N/A,,Partly Cloudy,310,2011-11-30 06:53:00
2:53 AM,59.0,52.0,78,30.00,10.0,Calm,Calm,-,N/A,,Partly Cloudy,0,2011-11-30 07:53:00
3:53 AM,59.0,52.0,78,30.00,10.0,Calm,Calm,-,N/A,,Partly Cloudy,0,2011-11-30 08:53:00
4:53 AM,59.0,53.1,81,30.00,10.0,Calm,Calm,-,N/A,,Partly Cloudy,0,2011-11-30 09:53:00
5:53 AM,59.0,52.0,78,30.00,10.0,NNW,3.5,-,N/A,,Partly Cloudy,330,2011-11-30 10:53:00
6:53 AM,59.0,52.0,78,30.01,10.0,NW,3.5,-,N/A,,Partly Cloudy,320,2011-11-30 11:53:00
7:53 AM,63.0,52.0,67,30.02,10.0,NW,4.6,-,N/A,,Partly Cloudy,310,2011-11-30 12:53:00
8:53 AM,68.0,53.1,59,30.04,10.0,NNW,5.8,-,N/A,,Partly Cloudy,330,2011-11-30 13:53:00
9:53 AM,70.0,52.0,53,30.05,10.0,NNW,6.9,-,N/A,,Partly Cloudy,340,2011-11-30 14:53:00
10:53 AM,73.0,54.0,51,30.03,10.0,NNW,10.4,-,N/A,,Clear,330,2011-11-30 15:53:00
11:53 AM,73.0,54.0,51,30.01,10.0,NW,9.2,-,N/A,,Clear,320,2011-11-30 16:53:00
12:53 PM,73.9,55.0,52,29.98,10.0,NNW,5.8,-,N/A,,Partly Cloudy,340,2011-11-30 17:53:00
1:53 PM,73.9,54.0,50,29.95,10.0,NW,9.2,-,N/A,,Partly Cloudy,310,2011-11-30 18:53:00
2:53 PM,75.0,55.0,50,29.95,10.0,North,5.8,-,N/A,,Partly Cloudy,350,2011-11-30 19:53:00
3:53 PM,73.9,54.0,50,29.94,10.0,WNW,9.2,-,N/A,,Partly Cloudy,300,2011-11-30 20:53:00
4:53 PM,73.0,54.0,51,29.95,10.0,WNW,8.1,-,N/A,,Scattered Clouds,290,2011-11-30 21:53:00
5:53 PM,71.1,55.9,59,29.97,10.0,North,11.5,-,N/A,,Mostly Cloudy,350,2011-11-30 22:53:00
6:53 PM,69.1,57.0,65,29.99,10.0,NNW,12.7,-,N/A,,Overcast,340,2011-11-30 23:53:00
7:53 PM,68.0,55.9,65,30.01,10.0,NNW,12.7,-,N/A,,Overcast,340,2011-12-01 00:53:00
8:53 PM,66.0,55.0,68,30.02,10.0,NW,8.1,-,N/A,,Mostly Cloudy,320,2011-12-01 01:53:00
9:53 PM,64.9,55.0,70,30.03,10.0,NW,8.1,-,N/A,,Partly Cloudy,320,2011-12-01 02:53:00
10:53 PM,62.1,55.0,78,30.04,10.0,NW,11.5,-,N/A,,Partly Cloudy,310,2011-12-01 03:53:00
11:53 PM,60.1,54.0,80,30.04,10.0,NW,9.2,-,N/A,,Partly Cloudy,310,2011-12-01 04:53:00